Terminal Aerodrome Forecast
Issued by NWS

Home | Current Version | Previous Version | Graphics & Text | Print | Product List | Glossary On
Versions: 1 2 3 4 5 6 7 8 9 10 11 12 13 14 15 16 17 18 19
000
FTUS43 KIWX 141700
TAFSBN
TAF
KSBN 141736Z 1418/1518 22007KT P6SM BKN040
     FM150000 VRB03KT P6SM BKN200
     FM151400 21007KT P6SM BKN060=

USA.gov is the U.S. government's official web portal to all federal, state and local government web resources and services.